Regional Weather Roundup
Issued by NWS

Home | Current Version | Previous Version | Graphics & Text | Print | Product List | Glossary On
Versions: 1 2 3 4 5 6 7 8 9 10 11 12 13 14 15 16 17 18 19 20 21 22 23 24 25 26 27 28 29 30 31 32 33 34 35 36 37 38 39 40 41 42 43 44 45 46 47 48 49 50
000
ASUS43 KBIS 260002
RWRND

NORTH DAKOTA REGIONAL WEATHER ROUNDUP
NATIONAL WEATHER SERVICE BISMARCK ND
700 PM CDT SAT MAR 25 2017

NOTE: "FAIR" INDICATES FEW OR NO CLOUDS BELOW 12,000 FEET WITH NO
SIGNIFICANT WEATHER AND/OR OBSTRUCTIONS TO VISIBILITY.


NDZ001>003-009>011-017-260100-
NORTHWEST NORTH DAKOTA

CITY           SKY/WX    TMP DP  RH WIND       PRES   REMARKS
WILLISTON      FAIR      58  30  34 SW6       29.86S
6HR MIN TEMP:  56; 6HR MAX TEMP:  61;

MINOT          FAIR      50  37  61 S9        29.86F
MINOT AFB      CLOUDY    46  38  74 S8        29.85F
$$

NDZ018>021-031>035-040>046-260100-
SOUTHWEST NORTH DAKOTA

CITY           SKY/WX    TMP DP  RH WIND       PRES   REMARKS
BISMARCK       FAIR      53  31  42 S8        29.91F
6HR MIN TEMP:  39; 6HR MAX TEMP:  56;

DICKINSON      CLOUDY    55  26  32 NW6       29.86R
GARRISON         N/A     47  37  68 SE5       29.88R
6HR MIN TEMP:  37; 6HR MAX TEMP:  50;

HETTINGER ARPT CLOUDY    57  35  43 E6        29.87S
$$

NDZ004>008-012>016-024-026-027-054-260100-
NORTHEAST NORTH DAKOTA

CITY           SKY/WX    TMP DP  RH WIND       PRES   REMARKS
GRAND FORKS    CLOUDY    37  34  89 S13       30.01F
GRND FRKS AFB  CLOUDY    37  33  87 S14       30.02S
DEVILS LAKE    FAIR      39  34  82 S17       29.95F
$$

NDZ022-023-025-028>030-036>039-047>053-260100-
SOUTHEAST NORTH DAKOTA

CITY           SKY/WX    TMP DP  RH WIND       PRES   REMARKS
FARGO          CLOUDY    39  34  82 S9        30.03F
6HR MIN TEMP:  36; 6HR MAX TEMP:  42;

JAMESTOWN      FAIR      42  34  73 SE12      29.96F
$$




USA.gov is the U.S. government's official web portal to all federal, state and local government web resources and services.